�N����,����,�~����,�C��,���x,�C��,����,���ϕ���,�ő�u�ԕ���,�ő厞����,���˗�,�I�_���x,�n�����x,�ő啗���N��,DTYPE
"16/11/15","00:10",0.4,14.9,97.9,1008.6,287.7,0.5,0.9,338.6,0.00,14.6,15.2,"00:08:32",1
"16/11/15","00:20",0.6,14.9,97.9,1008.6,318.2,0.5,1.0,337.2,0.00,14.6,15.1,"00:16:24",1
"16/11/15","00:30",0.4,14.9,98.1,1008.6,320.2,0.3,0.9,1.5,0.00,14.6,15.2,"00:29:20",1
"16/11/15","00:40",0.2,15.1,97.2,1008.3,328.1,0.2,1.0,346.9,0.00,14.7,15.1,"00:30:16",1
"16/11/15","00:50",0.0,15.0,97.9,1008.1,307.2,0.2,0.8,350.5,0.00,14.7,15.2,"00:49:36",1
"16/11/15","01:00",0.0,15.0,98.0,1008.1,277.4,0.3,0.6,242.1,0.00,14.7,15.1,"00:51:52",1
"16/11/15","01:10",0.0,15.2,97.2,1008.1,315.4,0.5,0.9,320.1,0.00,14.8,15.2,"01:06:32",1
"16/11/15","01:20",0.0,15.0,97.9,1007.6,305.0,0.3,1.0,340.7,0.00,14.7,15.2,"01:16:24",1
"16/11/15","01:30",0.0,15.1,98.0,1007.6,93.3,0.2,0.6,104.5,0.00,14.8,15.1,"01:22:32",1
"16/11/15","01:40",0.0,15.2,97.2,1007.4,339.8,0.5,1.1,335.1,0.00,14.8,15.1,"01:39:44",1
"16/11/15","01:50",0.4,15.0,97.9,1007.4,317.1,0.8,1.4,341.2,0.00,14.7,15.3,"01:41:12",1
"16/11/15","02:00",0.4,15.0,98.0,1006.9,263.6,0.6,0.9,250.1,0.00,14.7,15.3,"01:52:40",1
"16/11/15","02:10",0.2,15.2,97.2,1006.9,324.9,0.6,0.9,345.3,0.00,14.8,15.0,"02:02:48",1
"16/11/15","02:20",0.2,15.0,97.9,1006.7,315.8,0.6,0.9,233.2,0.00,14.7,15.2,"02:10:02",1
"16/11/15","02:30",0.2,15.0,98.1,1007.1,249.4,0.8,1.4,230.2,0.00,14.7,15.2,"02:22:24",1
"16/11/15","02:40",2.2,15.2,97.4,1006.9,239.0,0.5,1.4,231.0,0.00,14.8,15.2,"02:36:48",1
"16/11/15","02:50",0.0,15.1,98.0,1006.9,329.1,0.8,1.4,347.0,0.00,14.8,15.2,"02:42:24",1
"16/11/15","03:00",0.0,15.2,97.3,1007.1,311.6,0.5,0.9,311.3,0.00,14.8,15.2,"02:55:20",1
"16/11/15","03:10",0.0,15.1,97.9,1006.7,271.0,0.2,0.6,314.1,0.00,14.8,15.0,"03:03:36",1
"16/11/15","03:20",0.0,15.1,98.2,1006.9,3.1,0.1,0.8,120.5,0.00,14.9,15.1,"03:12:40",1
"16/11/15","03:30",0.0,15.2,97.4,1006.9,318.9,0.5,0.8,331.8,0.00,14.8,15.5,"03:24:40",1
"16/11/15","03:40",0.0,15.1,98.0,1006.7,312.5,0.3,0.5,317.8,0.00,14.8,15.1,"03:34:00",1
"16/11/15","03:50",0.0,15.2,97.4,1006.7,302.7,0.1,0.4,312.3,0.00,14.8,15.2,"03:46:16",1
"16/11/15","04:00",3.8,15.0,98.1,1006.4,257.3,0.0,0.4,249.9,0.00,14.7,15.2,"03:53:04",1
"16/11/15","04:10",0.2,15.3,97.4,1006.4,290.9,0.2,0.5,251.6,0.00,14.9,15.3,"04:01:28",1
"16/11/15","04:20",0.2,15.1,98.1,1006.4,279.0,0.1,0.3,289.3,0.00,14.8,15.2,"04:10:08",1
"16/11/15","04:30",0.0,15.3,97.4,1006.4,215.6,0.1,0.6,129.1,0.00,14.9,15.2,"04:28:56",1
"16/11/15","04:40",0.0,15.1,98.0,1006.2,178.4,0.2,0.8,105.1,0.00,14.8,15.3,"04:31:36",1
"16/11/15","04:50",0.0,15.2,97.4,1006.4,230.3,0.3,0.9,217.8,0.00,14.8,15.1,"04:49:52",1
"16/11/15","05:00",0.0,15.0,98.1,1006.4,236.8,0.6,1.1,240.4,0.00,14.7,15.3,"04:51:52",1
"16/11/15","05:10",0.0,15.2,97.4,1006.4,310.8,0.2,0.6,329.6,0.00,14.8,15.2,"05:07:28",1
"16/11/15","05:20",0.0,15.0,98.1,1006.4,298.5,0.6,0.9,314.4,0.00,14.7,15.1,"05:18:56",1
"16/11/15","05:30",0.0,15.2,97.4,1006.2,299.1,0.5,0.9,307.3,0.00,14.8,15.2,"05:20:08",1
"16/11/15","05:40",0.0,15.0,98.1,1006.4,299.5,0.2,0.6,278.2,0.00,14.7,15.1,"05:30:16",1
"16/11/15","05:50",0.0,15.2,97.5,1006.2,307.9,0.5,1.0,332.3,0.00,14.8,15.2,"05:45:20",1
"16/11/15","06:00",0.0,15.0,98.2,1006.7,263.0,0.5,0.6,259.3,0.00,14.8,15.3,"05:54:40",1
"16/11/15","06:10",0.0,15.2,97.5,1006.9,261.6,0.1,0.5,251.6,0.00,14.8,15.2,"06:00:24",1
"16/11/15","06:20",0.0,15.1,98.2,1006.7,306.1,0.7,0.9,320.9,0.00,14.9,15.2,"06:12:16",1
"16/11/15","06:30",0.0,15.2,97.5,1006.7,306.9,0.6,1.0,304.5,0.00,14.8,15.2,"06:24:56",1
"16/11/15","06:40",0.0,15.1,98.2,1006.7,284.4,0.6,0.8,310.8,0.00,14.9,15.3,"06:33:20",1
"16/11/15","06:50",0.2,15.3,97.5,1006.7,288.4,0.2,0.9,337.7,0.00,14.9,15.0,"06:42:56",1
"16/11/15","07:00",0.0,15.1,98.2,1006.4,261.2,0.2,0.6,269.2,0.00,14.9,15.2,"06:58:08",1
"16/11/15","07:10",0.0,15.3,97.6,1006.4,314.7,0.6,1.0,313.7,0.00,15.0,15.2,"07:09:44",1
"16/11/15","07:20",0.0,15.3,98.3,1006.9,310.9,0.6,1.0,323.3,0.00,15.1,15.3,"07:18:56",1
"16/11/15","07:30",0.0,15.5,97.6,1006.7,325.7,0.8,1.3,330.7,0.00,15.2,15.3,"07:29:20",1
"16/11/15","07:40",0.0,15.3,98.3,1006.7,323.6,0.8,1.3,337.8,0.00,15.1,15.2,"07:34:40",1
"16/11/15","07:50",0.0,15.6,97.6,1006.9,320.1,0.7,1.1,327.1,0.01,15.3,15.3,"07:44:00",1
"16/11/15","08:00",0.0,15.6,98.2,1006.7,326.5,0.6,1.0,333.8,0.02,15.4,15.2,"07:50:48",1
"16/11/15","08:10",0.0,15.8,97.5,1006.9,290.6,0.7,1.1,325.4,0.01,15.4,15.3,"08:00:56",1
"16/11/15","08:20",0.0,15.7,98.1,1006.9,318.8,0.8,1.6,339.2,0.02,15.4,15.3,"08:18:40",1
"16/11/15","08:30",0.0,15.9,97.5,1007.6,322.1,1.0,1.4,327.3,0.03,15.5,15.4,"08:20:48",1
"16/11/15","08:40",0.0,15.8,98.0,1007.4,327.2,1.0,1.2,332.9,0.02,15.5,15.3,"08:30:40",1
"16/11/15","08:50",0.0,15.9,97.3,1007.4,332.6,1.0,1.7,341.9,0.01,15.5,15.4,"08:45:44",1
"16/11/15","09:00",0.0,15.9,98.1,1007.4,333.4,1.0,1.4,342.9,0.04,15.6,15.5,"08:54:40",1
"16/11/15","09:10",0.0,16.2,97.1,1006.9,329.3,1.1,1.7,339.8,0.05,15.8,15.5,"09:01:04",1
"16/11/15","09:20",0.0,16.1,97.8,1007.4,336.0,1.0,1.7,326.0,0.05,15.8,15.6,"09:17:12",1
"16/11/15","09:30",0.0,16.4,97.9,1007.1,310.3,0.6,1.2,315.6,0.08,16.1,15.7,"09:20:16",1
"16/11/15","09:40",0.0,16.5,97.6,1007.1,104.3,0.3,1.0,109.7,0.16,16.2,15.7,"09:37:36",1
"16/11/15","09:50",0.0,16.9,96.3,1007.1,125.5,0.3,1.0,114.9,0.11,16.3,15.8,"09:45:44",1
"16/11/15","10:00",0.0,17.1,95.2,1007.1,92.4,0.6,1.8,113.4,0.14,16.4,15.9,"09:55:04",1
"16/11/15","10:10",0.0,17.1,94.5,1006.7,84.5,0.5,1.4,115.7,0.13,16.3,16.0,"10:00:40",1
"16/11/15","10:20",0.0,17.7,93.6,1006.9,267.0,0.3,0.9,263.1,0.18,16.7,16.1,"10:14:00",1
"16/11/15","10:30",0.0,18.2,91.7,1007.1,346.1,0.8,1.7,351.1,0.29,16.9,16.2,"10:27:52",1
"16/11/15","10:40",0.0,18.5,91.3,1007.1,345.1,0.6,2.1,3.9,0.26,17.1,16.3,"10:31:44",1
"16/11/15","10:50",0.0,18.8,90.3,1006.9,308.6,0.6,1.4,241.4,0.19,17.2,16.4,"10:42:56",1
"16/11/15","11:00",0.0,18.9,89.6,1006.4,267.0,0.6,1.1,255.4,0.16,17.2,16.6,"10:50:48",1
"16/11/15","11:10",0.0,19.6,87.8,1006.2,239.4,0.5,1.2,322.3,0.25,17.6,16.6,"11:00:08",1
"16/11/15","11:20",0.0,20.1,85.7,1006.7,298.7,0.7,1.4,231.7,0.27,17.7,16.9,"11:12:16",1
"16/11/15","11:30",0.0,20.5,82.0,1006.4,301.1,0.7,2.1,285.3,0.29,17.4,17.0,"11:28:48",1
"16/11/15","11:40",0.0,20.3,83.2,1006.4,302.2,1.1,3.1,337.6,0.20,17.4,17.1,"11:30:32",1
"16/11/15","11:50",0.0,20.4,81.1,1006.2,328.4,1.6,5.5,348.4,0.28,17.1,17.2,"11:46:08",1
"16/11/15","12:00",0.0,21.0,80.8,1006.0,312.1,1.1,2.0,212.5,0.33,17.6,17.5,"11:56:56",1
"16/11/15","12:10",0.0,20.8,80.0,1005.7,319.4,1.1,2.1,329.9,0.29,17.3,17.2,"12:02:48",1
"16/11/15","12:20",0.0,21.1,78.1,1005.5,312.9,1.0,2.2,348.2,0.25,17.2,17.6,"12:11:04",1
"16/11/15","12:30",0.0,21.1,77.5,1005.0,306.9,0.7,2.4,342.9,0.23,17.1,17.5,"12:24:56",1
"16/11/15","12:40",0.0,21.5,77.0,1004.8,285.7,0.7,1.9,231.0,0.30,17.3,17.8,"12:38:24",1
"16/11/15","12:50",0.0,21.6,76.1,1004.8,293.6,0.8,2.0,342.5,0.28,17.3,18.0,"12:41:12",1
"16/11/15","13:00",0.0,21.1,76.7,1004.3,271.2,1.2,3.5,237.8,0.17,16.9,18.1,"12:53:52",1
"16/11/15","13:10",0.0,20.9,76.7,1004.5,289.3,1.2,2.2,229.4,0.09,16.7,18.0,"13:06:08",1
"16/11/15","13:20",0.0,20.9,77.5,1004.8,293.7,1.2,2.9,342.5,0.15,16.9,18.0,"13:14:16",1
"16/11/15","13:30",0.0,21.7,74.9,1004.5,266.8,1.0,2.7,273.5,0.27,17.1,18.2,"13:20:16",1
"16/11/15","13:40",0.0,21.1,74.0,1004.5,296.9,0.8,2.2,234.3,0.13,16.3,18.1,"13:30:48",1
"16/11/15","13:50",0.0,22.1,70.8,1005.0,311.9,1.0,2.7,350.0,0.30,16.6,18.3,"13:42:56",1
"16/11/15","14:00",0.0,21.2,72.8,1004.5,320.2,1.6,3.4,6.5,0.18,16.2,18.3,"13:57:36",1
"16/11/15","14:10",0.0,21.7,72.2,1004.1,328.3,1.1,2.2,240.7,0.23,16.5,18.3,"14:05:28",1
"16/11/15","14:20",0.0,21.7,71.0,1004.3,324.7,1.1,3.4,0.2,0.23,16.3,18.4,"14:15:04",1
"16/11/15","14:30",0.0,21.7,68.6,1004.3,331.8,1.7,3.5,353.3,0.28,15.7,18.3,"14:28:56",1
"16/11/15","14:40",0.0,21.6,70.2,1004.8,334.9,2.0,3.7,332.0,0.23,16.0,18.5,"14:32:16",1
"16/11/15","14:50",0.0,20.9,68.6,1004.8,330.0,2.3,5.8,344.3,0.16,15.0,18.6,"14:46:32",1
"16/11/15","15:00",0.0,20.5,71.4,1004.8,344.8,2.5,4.3,305.9,0.12,15.2,18.4,"14:53:04",1
"16/11/15","15:10",0.0,20.2,71.8,1005.2,330.5,2.5,4.7,315.4,0.07,15.0,18.4,"15:06:52",1
"16/11/15","15:20",0.0,19.7,73.1,1005.7,337.6,2.5,4.8,333.9,0.06,14.8,18.4,"15:19:44",1
"16/11/15","15:30",0.0,19.0,74.1,1006.2,350.8,3.7,7.3,350.3,0.07,14.3,18.2,"15:25:44",1
"16/11/15","15:40",0.0,18.4,75.4,1006.2,351.6,3.4,6.5,357.1,0.02,14.0,18.2,"15:39:52",1
"16/11/15","15:50",0.0,17.5,77.3,1007.1,355.9,3.4,7.5,336.6,0.00,13.5,18.2,"15:40:56",1
"16/11/15","16:00",0.0,16.9,78.3,1007.4,357.3,3.2,7.1,347.6,0.00,13.1,17.9,"15:59:12",1
"16/11/15","16:10",0.0,16.6,78.0,1007.6,352.7,2.8,6.3,35.8,0.00,12.8,17.8,"16:08:08",1
"16/11/15","16:20",0.0,16.2,77.3,1008.1,337.6,3.1,5.5,350.4,0.00,12.3,18.0,"16:16:48",1
"16/11/15","16:30",0.0,16.0,77.8,1007.8,348.5,2.5,6.0,347.4,0.00,12.2,17.5,"16:20:08",1
"16/11/15","16:40",0.0,15.7,77.7,1008.6,314.2,1.7,4.0,343.4,0.00,11.9,17.3,"16:33:20",1
"16/11/15","16:50",0.0,15.2,77.6,1008.1,311.2,1.6,2.8,299.8,0.00,11.4,17.3,"16:43:52",1
"16/11/15","17:00",0.0,14.8,77.8,1008.6,308.6,2.5,5.7,339.4,0.00,11.0,17.1,"16:52:16",1
"16/11/15","17:10",0.0,14.6,77.1,1009.0,282.6,1.8,4.3,236.0,0.00,10.7,17.1,"17:02:56",1
"16/11/15","17:20",0.0,14.4,77.3,1009.3,290.4,1.8,3.3,3.6,0.00,10.5,17.2,"17:13:36",1
"16/11/15","17:30",0.0,14.2,77.2,1009.0,315.3,1.7,4.0,286.6,0.00,10.3,17.0,"17:26:48",1
"16/11/15","17:40",0.0,13.9,76.6,1009.0,294.2,1.6,4.0,268.3,0.00,9.9,16.9,"17:34:58",1
"16/11/15","17:50",0.0,13.8,76.6,1009.3,314.6,2.3,4.2,313.7,0.00,9.8,16.8,"17:43:14",1
"16/11/15","18:00",0.0,13.6,76.1,1009.5,316.9,2.3,4.8,346.4,0.00,9.5,16.7,"17:58:40",1
"16/11/15","18:10",0.0,13.4,76.3,1009.7,320.2,2.0,4.1,339.3,0.00,9.4,16.6,"18:00:48",1
"16/11/15","18:20",0.0,13.3,76.5,1010.2,325.8,2.5,3.9,316.9,0.00,9.3,16.5,"18:13:20",1
"16/11/15","18:30",0.0,13.2,77.2,1009.7,335.2,3.2,7.8,338.6,0.00,9.3,16.4,"18:22:08",1
"16/11/15","18:40",0.0,13.1,77.0,1010.0,330.8,3.5,6.8,312.0,0.00,9.2,16.2,"18:33:30",1
"16/11/15","18:50",0.0,13.0,77.0,1010.0,328.8,2.8,5.5,355.9,0.00,9.1,16.1,"18:44:08",1
"16/11/15","19:00",0.0,13.0,76.1,1010.2,328.9,3.5,7.0,0.6,0.00,8.9,15.8,"18:55:46",1
"16/11/15","19:10",0.0,13.1,75.9,1010.7,327.3,2.8,5.9,303.5,0.00,9.0,15.8,"19:00:32",1
"16/11/15","19:20",0.0,13.1,75.4,1010.7,318.8,2.2,4.9,348.5,0.00,8.9,15.7,"19:10:40",1
"16/11/15","19:30",0.0,13.0,75.7,1011.2,325.3,2.0,3.4,330.8,0.00,8.9,15.7,"19:23:28",1
"16/11/15","19:40",0.0,12.9,76.4,1011.2,333.9,1.8,3.7,333.6,0.00,8.9,15.6,"19:31:12",1
"16/11/15","19:50",0.0,12.9,76.6,1011.2,333.7,2.2,4.8,332.8,0.00,8.9,15.7,"19:47:22",1
"16/11/15","20:00",0.0,12.7,76.6,1011.2,327.2,1.7,3.5,337.9,0.00,8.7,15.6,"19:58:42",1
"16/11/15","20:10",0.0,12.7,77.0,1011.2,338.1,2.2,4.0,346.3,0.00,8.8,15.4,"20:00:40",1
"16/11/15","20:20",0.0,12.7,76.9,1011.4,330.8,2.0,4.1,336.4,0.00,8.8,15.4,"20:13:06",1
"16/11/15","20:30",0.0,12.7,76.0,1011.4,323.8,1.6,3.3,330.3,0.00,8.6,15.5,"20:21:44",1
"16/11/15","20:40",0.0,12.6,76.3,1011.6,325.6,1.6,3.7,349.7,0.00,8.6,15.5,"20:36:02",1
"16/11/15","20:50",0.0,12.7,76.3,1011.9,324.2,1.7,3.3,335.1,0.00,8.7,15.4,"20:41:20",1
"16/11/15","21:00",0.0,12.6,75.5,1011.6,312.0,1.3,2.5,338.5,0.00,8.4,15.3,"20:51:44",1
"16/11/15","21:10",0.0,12.6,74.9,1011.9,317.9,1.8,3.9,345.9,0.00,8.3,15.4,"21:01:12",1
"16/11/15","21:20",0.0,12.6,74.8,1012.1,323.4,1.7,2.8,348.3,0.00,8.3,15.2,"21:16:16",1
"16/11/15","21:30",0.0,12.5,74.7,1011.9,316.5,1.7,2.8,350.8,0.00,8.2,15.1,"21:26:46",1
"16/11/15","21:40",0.0,12.5,74.4,1012.1,318.3,1.7,2.8,331.9,0.00,8.1,14.9,"21:33:54",1
"16/11/15","21:50",0.0,12.4,74.3,1012.3,333.4,1.8,3.4,352.4,0.00,8.0,15.3,"21:44:06",1
"16/11/15","22:00",0.0,12.4,73.3,1012.1,324.2,2.0,4.0,331.4,0.00,7.8,15.1,"21:59:38",1
"16/11/15","22:10",0.0,12.4,73.3,1012.3,323.1,1.7,3.4,349.2,0.00,7.8,15.1,"22:03:30",1
"16/11/15","22:20",0.0,12.3,73.1,1012.1,314.6,1.6,2.7,325.0,0.00,7.7,15.0,"22:17:46",1
"16/11/15","22:30",0.0,12.3,72.8,1012.3,313.8,2.0,3.4,325.1,0.00,7.6,15.0,"22:21:44",1
"16/11/15","22:40",0.0,12.2,72.6,1012.3,314.7,2.1,3.6,301.7,0.00,7.5,14.9,"22:30:40",1
"16/11/15","22:50",0.0,12.1,71.3,1012.6,321.5,2.0,3.5,317.9,0.00,7.1,15.0,"22:48:36",1
"16/11/15","23:00",0.0,12.1,71.7,1012.8,322.1,1.6,3.2,339.8,0.00,7.2,14.9,"22:53:46",1
"16/11/15","23:10",0.0,12.0,71.6,1012.8,312.2,1.6,2.9,329.0,0.00,7.1,14.8,"23:08:32",1
"16/11/15","23:20",0.0,11.9,71.9,1013.0,324.7,1.8,3.1,332.9,0.00,7.0,14.6,"23:13:20",1
"16/11/15","23:30",0.0,11.7,69.7,1013.0,319.8,2.0,3.6,310.2,0.00,6.4,14.6,"23:23:42",1
"16/11/15","23:40",0.0,11.5,69.3,1013.3,336.8,2.0,3.4,331.4,0.00,6.1,14.7,"23:37:40",1
"16/11/15","23:50",0.0,11.2,68.4,1013.3,309.9,1.7,3.9,337.7,0.00,5.6,14.6,"23:46:56",1
"16/11/15","24:00",0.0,11.1,68.1,1013.5,325.4,1.8,3.6,326.9,0.00,5.5,14.6,"23:55:54",1
